Wind_Speed
25 18 27 29 26 26 25 20 16 17 14 22 16 15 16 14 13 17 22 26 26 25 32 32 33 33 33 30 29 28 27 26
22 20 26 29 22 24 21 26 24 20 19 12 18 18 17 14 15 17 20 22 25 25 32 35 35 35 34 33 31 27 28 27
22 27 27 21 24 21 23 23 20 18 19 17 16 15 16 14 14 16 18 21 23 25 33 34 34 34 34 31 30 30 29 30
17 27 29 26 26 26 18 27 21 23 20 16 14 18 22 21 16 11 13 18 21 22 27 33 35 34 34 33 31 31 33 30
19 18 16 27 32 29 27 21 26 20 18 18 11 13 13 12 14 7 8 13 17 20 22 27 33 34 35 34 34 32 30 29
17 21 20 25 26 30 30 23 24 27 22 21 19 17 17 15 15 10 9 12 16 18 20 25 29 30 31 33 32 31 29 29
22 22 20 24 28 28 31 32 29 23 29 25 23 21 18 19 17 12 12 14 18 19 18 18 24 26 28 28 28 28 27 26
21 23 25 23 26 28 27 28 30 32 31 23 26 24 24 23 20 15 16 16 19 19 19 20 23 24 24 24 23 22 22 22
17 18 22 24 27 27 29 27 25 25 27 30 26 22 25 22 19 17 18 18 19 20 17 17 22 22 21 20 20 20 20 20
12 2 14 15 19 23 25 28 24 21 18 23 20 18 20 20 14 17 15 15 16 16 15 19 20 21 20 20 20 21 20 21
12 14 8 14 7 17 22 24 27 21 22 14 12 11 14 8 9 13 13 13 15 18 20 23 23 22 22 21 21 21 20 20
9 15 17 2 9 13 13 15 24 26 20 22 13 13 14 8 8 10 14 14 16 24 24 24 25 25 23 22 21 21 21 22
11 11 10 10 13 4 9 7 21 19 21 19 16 5 7 10 9 11 14 17 26 25 23 24 25 24 22 21 19 19 20 20
6 11 15 8 1 2 14 15 9 11 14 14 12 14 14 15 16 18 20 19 25 23 23 21 21 20 19 16 15 16 15 16
10 7 5 5 2 2 7 2 4 10 15 19 22 20 20 19 17 18 20 16 21 20 19 17 15 13 13 13 14 15 15 15
9 5 8 7 8 6 5 7 15 13 18 18 19 22 20 15 15 15 14 13 17 16 14 13 12 13 14 14 13 14 14 13
5 5 10 13 11 6 5 8 14 15 16 15 14 18 20 13 14 13 12 12 11 10 10 10 11 12 12 12 12 13 13 14
5 11 9 9 10 4 9 12 13 17 20 18 18 17 17 15 14 9 10 12 8 8 9 10 11 12 12 14 14 15 13 11
4 9 16 14 9 8 12 12 16 17 17 17 17 16 16 14 9 12 13 12 5 5 7 10 11 13 12 12 12 13 11 11
Wind_Direction
218 216 221 204 220 227 242 228 244 225 211 240 245 248 250 249 221 205 205 206 199 199 202 201 202 202 204 207 209 208 209 210
202 215 221 228 211 221 230 237 228 233 240 218 217 228 244 222 223 214 205 207 204 200 199 199 201 203 206 209 210 209 209 211
211 208 212 210 224 219 234 228 242 239 234 227 234 253 268 268 219 224 206 204 206 203 203 198 201 203 205 207 209 208 207 210
218 223 215 225 213 217 221 225 237 246 245 222 234 228 241 245 260 227 215 206 205 205 200 197 202 202 205 206 207 208 209 207
231 222 206 228 225 221 228 237 228 227 232 248 215 238 263 250 244 235 229 205 202 200 194 202 201 203 206 206 207 208 210 207
224 224 219 213 226 235 231 230 232 241 240 225 223 230 248 252 245 241 218 204 199 199 193 198 201 200 205 209 210 211 209 211
230 253 240 234 219 222 233 239 240 236 234 236 240 248 244 253 253 232 215 198 196 196 190 192 197 198 203 208 207 211 211 214
243 242 239 237 232 239 228 236 241 242 247 237 232 235 244 246 247 231 219 202 200 194 192 191 192 193 192 198 202 203 211 214
242 231 233 241 242 228 228 236 232 234 237 237 246 240 231 236 232 231 222 202 195 193 193 186 186 185 182 185 187 191 197 201
255 173 236 250 235 239 239 227 233 245 237 225 222 240 228 238 248 232 218 194 188 187 178 173 176 176 172 172 178 183 188 193
238 237 285 289 313 232 238 238 225 222 230 232 238 236 231 225 220 233 200 192 175 169 166 166 168 162 161 166 171 174 180 186
203 239 231 145 17 344 317 247 240 235 222 233 212 226 231 166 196 198 173 179 170 162 158 159 153 155 155 157 163 172 175 181
202 225 236 30 341 47 234 262 231 211 221 223 212 272 103 134 149 153 136 149 141 145 144 142 145 147 150 156 164 167 173 176
206 230 230 15 255 229 334 304 279 220 202 190 140 130 122 120 130 131 123 136 128 127 127 134 140 147 148 153 153 158 165 168
220 231 65 25 302 282 325 10 114 127 132 141 128 117 110 114 118 112 113 119 119 119 120 126 132 142 139 139 149 152 154 161
183 79 72 86 69 29 34 82 101 104 117 114 112 111 106 105 97 93 97 103 111 119 121 117 118 121 135 147 150 152 155 160
115 126 120 75 59 75 76 77 92 83 83 88 83 84 95 84 77 82 82 78 86 105 112 118 121 119 130 140 149 153 158 167
180 131 88 61 33 22 87 81 77 79 77 66 71 71 64 72 68 73 81 72 76 98 118 124 121 124 136 148 157 154 151 162
63 87 98 81 10 29 77 81 86 83 76 75 64 67 68 75 68 67 80 78 63 80 108 122 124 123 130 142 149 150 149 149
Height
683 687 687 701 711 694 715 708 724 712 713 699 689 692 686 684 685 686 691 696 705 716 724 733 741 748 754 761 767 773 779 784
680 683 679 681 684 720 703 736 742 723 716 715 701 693 682 679 681 679 682 688 693 703 712 722 732 739 746 753 760 767 772 776
684 688 689 691 691 691 692 701 725 733 714 678 689 685 683 671 669 669 673 679 684 690 701 714 723 730 737 745 753 758 764 768
686 665 665 667 682 683 702 714 697 703 700 657 663 669 668 664 657 654 661 668 677 683 694 703 711 720 727 735 743 749 753 759
695 677 667 675 670 671 675 679 688 709 701 657 658 664 661 664 658 656 663 665 671 677 685 694 702 710 717 725 732 739 747 753
684 677 663 679 673 666 670 678 686 677 681 668 663 667 661 655 655 657 663 665 669 673 680 688 694 701 709 716 724 731 738 745
662 656 653 658 663 668 669 665 674 668 670 663 659 658 655 649 646 653 661 664 665 668 674 682 689 696 705 712 718 724 731 737
664 652 652 659 654 654 655 657 656 661 659 639 640 645 647 645 642 648 656 656 660 665 671 677 685 692 700 707 714 721 726 732
672 646 649 664 646 643 647 643 647 661 646 641 641 638 638 636 637 640 644 647 654 659 667 674 681 689 696 704 710 716 722 726
665 660 688 638 618 623 632 632 629 634 629 627 630 627 627 624 626 631 635 641 648 653 662 671 678 686 692 698 704 710 716 721
671 663 647 638 627 630 635 634 620 628 625 621 622 632 637 628 627 627 629 636 643 650 661 667 673 681 687 695 701 706 712 717
655 668 677 649 647 643 644 650 611 611 617 623 624 647 622 623 626 627 628 636 642 648 657 665 669 678 685 692 697 702 706 711
652 663 648 647 648 637 668 640 599 603 611 615 626 624 623 621 627 629 630 640 642 651 657 663 670 676 683 689 693 697 703 708
647 660 663 650 642 651 646 630 620 614 610 616 625 626 626 627 633 635 636 645 646 650 660 667 673 678 682 687 692 698 704 709
649 642 653 649 653 644 638 633 623 620 617 623 623 628 627 633 639 636 638 645 651 658 665 671 673 678 682 689 693 698 704 708
650 652 654 654 650 647 646 639 633 631 628 630 634 628 635 643 642 644 650 654 658 662 666 673 676 677 682 689 694 698 703 708
649 657 652 654 659 661 661 651 648 644 642 643 640 641 641 649 653 657 659 664 667 669 671 676 678 680 684 689 694 699 704 709
646 653 661 673 667 670 663 657 654 651 653 654 651 654 654 654 658 672 669 670 676 678 679 680 680 682 686 690 695 699 705 710
657 658 672 675 681 676 667 668 661 661 662 664 664 664 667 671 679 675 671 674 681 683 684 683 684 686 690 695 699 699 700 705